Regional Weather Roundup
Issued by NWS Sioux Falls, SD

Home | Current Version | Previous Version | Graphics & Text | Print | Product List | Glossary On
Versions: 1 2 3 4 5 6 7 8 9 10 11 12 13 14 15 16 17 18 19 20 21 22 23 24 25 26 27 28 29 30 31 32 33 34 35 36 37 38 39 40 41 42 43 44 45 46 47 48 49 50
000
ASUS43 KFSD 272110
RWRFSD

WEATHER ROUNDUP FOR SE SOUTH DAKOTA/SW MINNESOTA/NW IOWA
NATIONAL WEATHER SERVICE SIOUX FALLS SD
400 PM CDT FRI MAR 27 2015

NOTE: "FAIR" INDICATES FEW OR NO CLOUDS BELOW 12,000 FEET WITH NO
SIGNIFICANT WEATHER AND OR OBSTRUCTIONS TO VISIBILITY.


SDZ038>040-050-052>070-272200-
SOUTHEAST SOUTH DAKOTA

CITY           SKY/WX    TMP DP  RH WIND       PRES   REMARKS
CHAMBERLAIN    CLOUDY    40  31  71 SE17G24   29.98F
HURON          LGT SNOW  31  28  89 SE10      30.06F FOG     WCI  22
MADISON        FAIR      34  14  44 S9G17     30.08F WCI  26
MITCHELL       CLOUDY    34  27  75 S13       30.09F WCI  25
SIOUX FALLS    CLOUDY    36  11  35 S8        30.11F
WINNER         FAIR      54  33  45 S13       29.93F
YANKTON        CLOUDY    36  25  64 S13       30.12F
$$

MNZ071-072-080-081-089-090-097-098-272200-
SOUTHWEST MINNESOTA

CITY           SKY/WX    TMP DP  RH WIND       PRES   REMARKS
FAIRMONT       FAIR      36   5  27 S8        30.14F
JACKSON        CLOUDY    34   0  23 S3        30.13F
LUVERNE        CLOUDY    36   9  32 S9        30.12F
MARSHALL       CLOUDY    36   5  27 S8        30.11F
MONTEVIDEO     CLOUDY    37  12  35 S7        30.13F
PIPESTONE      CLOUDY    34   9  35 SW12      30.08F WCI  25
REDWOOD FALLS  PTSUNNY   36  14  40 S12G20    30.13F
TRACY          CLOUDY    37   6  27 S6        30.11F
WINDOM         CLOUDY    36   5  27 S6        30.12F
WORTHINGTON    CLOUDY    34   7  32 S9        30.12F WCI  26
$$

IAZ001>003-012>014-020>022-031-032-NEZ013-014-SDZ071-272200-
NORTHWEST IOWA

CITY           SKY/WX    TMP DP  RH WIND       PRES   REMARKS
CHEROKEE       CLOUDY    37  10  32 CALM      30.14F
DENISON        CLOUDY    39  10  30 S5        30.12F
ESTHERVILLE    PTSUNNY   35  13  40 SW8       30.13F WCI  29
LE MARS        CLOUDY    37  12  35 S9        30.15F
ORANGE CITY    CLOUDY    36   9  32 SW7       30.13S
SHELDON        CLOUDY    36  10  35 S8        30.11F
SIOUX CITY     CLOUDY    39  11  31 VRB5      30.15F
SPENCER        CLOUDY    35  11  36 SW6       30.14F
STORM LAKE     CLOUDY    36   7  30 CALM      30.14F
$$

ABBREVIATIONS USED IN REMARKS
   TC - TEMPERATURE IN CELSIUS
  WCI - WIND CHILL INDEX
   HX - HEAT INDEX
  VSB - VISIBILITY



USA.gov is the U.S. government's official web portal to all federal, state and local government web resources and services.